This is the latest recevied weather packets stored in our database for station/object DF7ER-12. If no packets are shown the sender has not sent any weather packets the latest 1 day(s).
| Time | Temp. | Humidity | Pressure | Rain* | Wind** | Luminosity | Snow |
|---|---|---|---|---|---|---|---|
| 1778077005 | 13.33° C | 100% | 997.3 hPa | - | - | - | - |
| 1778076704 | 12.22° C | 100% | 997.3 hPa | - | - | - | - |
| 1778074904 | 12.78° C | 100% | 997.3 hPa | - | - | - | - |
| 1778074604 | 12.78° C | 100% | 997.3 hPa | - | - | - | - |
| 1778074004 | 12.22° C | 100% | 997.3 hPa | - | - | - | - |
| 1778073104 | 12.78° C | 100% | 997.3 hPa | - | - | - | - |
| 1778070404 | 12.22° C | 100% | 997.2 hPa | - | - | - | - |
| 1778069504 | 12.22° C | 100% | 997.3 hPa | - | - | - | - |
| 1778067404 | 12.22° C | 100% | 997.1 hPa | - | - | - | - |
| 1778066804 | 12.22° C | 100% | 997.1 hPa | - | - | - | - |
| 1778065304 | 12.22° C | 100% | 997 hPa | - | - | - | - |
| 1778062604 | 11.67° C | 100% | 996.9 hPa | - | - | - | - |
| 1778062304 | 11.67° C | 100% | 997 hPa | - | - | - | - |
| 1778062004 | 11.67° C | 100% | 996.9 hPa | - | - | - | - |
| 1778058704 | 11.11° C | 100% | 996.8 hPa | - | - | - | - |
| 1778058404 | 11.67° C | 100% | 996.8 hPa | - | - | - | - |
| 1778057804 | 10.56° C | 100% | 996.8 hPa | - | - | - | - |
| 1778056604 | 11.11° C | 100% | 996.7 hPa | - | - | - | - |
| 1778055704 | 11.11° C | 100% | 996.7 hPa | - | - | - | - |
| 1778055104 | 10.56° C | 100% | 996.7 hPa | - | - | - | - |
| 1778054804 | 10.56° C | 100% | 996.6 hPa | - | - | - | - |
| 1778054204 | 10.56° C | 100% | 996.6 hPa | - | - | - | - |
| 1778053904 | 10° C | 100% | 996.5 hPa | - | - | - | - |
| 1778050604 | 10° C | 100% | 996.3 hPa | - | - | - | - |
| 1778049704 | 10° C | 100% | 996.2 hPa | - | - | - | - |
* Rain since midnight (hover to see other rain measurements)
** Current wind speed in m/s (hover to see current wind gust speed)